www.pogodaiklimat.ru

Погода и климат >> Архив погоды >> Гана >> Навронго


ПОГОДА в Навронго

  • Прогноз погоды в Навронго
  • Монитор погоды в Навронго

АРХИВ ПОГОДЫ в Навронго

Время (UTC), дата Ветер
(напр.,м/с)
 
Видим.   Явления Облачность Т
(С)
Тd
(С)
f
(%)
Тe
(С)
Тes
(С)
Комфортность P
(гПа)
Po
(гПа)
Тmin
(С)
Tmax
(С)
R
(мм)
R24
(мм)
S
(см)
21 13.05 СЗ 2 16 км 9/0
[Ac trans]
+27.5 +21.1 68 +35 +35 очень
душно
1009.1 986.1
09 14.05 ЮЗ 1 12 км 6/0
[Ac trans]
+29.5 +22.8 67 +39 +47 очень
душно
1011.4 988.5
12 14.05 ЮЗ 2 12 км 8/0
[Cs]
+34.0 +22.3 51 +43 +63 опасность
перегрева
1009.4 986.9
15 14.05 ЮЗ 2 12 км 4/0
[Ci fib]
+36.5 +20.2 39 +43 +54 опасность
перегрева
1006.7 984.4
18 14.05 ЮВ 1 12 км 4/0
[Ci fib]
+35.5 +20.7 42 +42 +42 опасность
перегрева
1005.8 983.4 +36.5
21 14.05 ЮЗ 1 12 км 6/0
[Ac trans]
+32.0 +22.9 59 +42 +42 опасность
перегрева
1007.8 985.1
03 15.05 ЮЗ 1 16 км 9/0
[Ac trans]
+29.3 +23.5 71 +40 +40 очень
душно
1009.3 986.4
06 15.05 ЮЗ 1 12 км 9/0
[Ac trans]
+29.0 +23.0 70 +39 +39 очень
душно
1009.8 986.9 +26.8
09 15.05 ЮЗ 1 12 км 9/0
[Ac trans]
+31.0 +27.7 83 +51 +56 опасность
перегрева
1014.3 991.4
12 15.05 ЮВ 2 12 км 9/3 540 м
[Cu hum Ac trans Cs]
+34.0 +23.7 55 +45 +55 опасность
перегрева
1012.8 990.2
00 16.05 ЮЗ 1 12 км 9/0
[Ac trans]
+25.6 +23.8 90 +35 +35 очень
душно
1013.5 990.2
06 16.05 ЮЗ 2 12 км 9/5 360 м
[Sc Ac trans]
+24.5 +22.1 86 +32 +32 очень
душно
1013.4 990.1 +23.5 2
15 16.05 ЮВ 2 12 км 8/1 480 м
[Cu hum Ac trans Cs]
+34.5 +22.9 51 +44 +51 опасность
перегрева
1009.8 987.3
18 16.05 ЮЗ 2 12 км 6/0
[Ac trans Cs]
+34.5 +22.9 51 +44 +45 опасность
перегрева
1009.1 986.6 +35.5
21 16.05 ЮЗ 2 12 км 9/0
[Ac trans]
+31.8 +23.9 63 +43 +43 опасность
перегрева
1011.5 988.7
00 17.05 ЮЗ 2 12 км 9/0
[Ac trans]
+30.0 +23.2 67 +40 +40 очень
душно
1012.2 989.3
03 17.05 ЮВ 2 16 км 9/0
[Ac trans]
+28.5 +23.0 72 +38 +38 очень
душно
1010.8 987.8
12 17.05 СЗ 2 12 км 3/3 480 м
[Cu hum]
+36.0 +23.0 47 +46 +62 опасность
перегрева
1011.9 989.4
15 17.05 ЮВ 2 12 км 3/3 480 м
[Cu hum]
+30.5 +21.4 58 +38 +47 очень
душно
1007.9 985.1
21 17.05 ЮЗ 2 12 км зарница 8/1 900 м
[Cb cap Ac trans Ci fib]
+33.6 +23.9 57 +45 +45 опасность
перегрева
1008.8 986.2
00 18.05 ЮЗ 2 12 км 9/0
[Ac trans]
+32.1 +23.9 62 +44 +44 опасность
перегрева
1009.3 986.6
06 18.05 ЮЗ 2 12 км 8/0
[Ac trans]
+27.4 +22.8 76 +36 +36 очень
душно
1009.8 986.8 +25.3
09 18.05 ЮЗ 1 12 км 6/0
[Ac trans Ci fib]
+30.7 +22.2 61 +40 +50 очень
душно
1011.8 989.0
12 18.05 ЮЗ 1 12 км 5/0
[Ac trans Ci fib]
+35.0 +23.4 51 +46 +66 опасность
перегрева
1010.8 988.3
18 18.05 ЮЗ 1 12 км 6/4 540 м
[Cb cap Ac trans Ci fib]
+36.5 +21.9 43 +45 +45 опасность
перегрева
1006.6 984.3 +38.3
21 18.05 ЮВ 2 12 км 8/3 360 м
[Sc Ac trans Ci fib]
+33.0 +23.5 58 +44 +44 опасность
перегрева
1008.9 986.3
00 19.05 ЮЗ 1 12 км 8/0
[Ac trans]
+31.5 +24.9 68 +45 +45 опасность
перегрева
1010.6 987.8
06 19.05 ЮЗ 1 12 км 9/0
[Ac trans]
+30.0 +25.5 77 +44 +44 опасность
перегрева
1009.3 986.5 +26.0
09 19.05 ЮЗ 2 12 км 1/1 540 м
[Cu hum]
+33.5 +25.5 63 +48 +59 опасность
перегрева
1011.0 988.4
12 19.05 ЮВ 2 12 км 4/4 540 м
[Cu med, cong]
+36.9 +23.4 46 +47 +61 опасность
перегрева
1010.2 987.8
15 19.05 ЮЗ 2 12 км 6/6 540 м
[Cu med, cong]
+38.0 +22.9 42 +47 +52 опасность
перегрева
1006.9 984.7
21 19.05 ЮЗ 1 12 км 9/0
[Ac trans]
+31.0 +22.8 62 +41 +41 опасность
перегрева
1009.2 986.4
03 20.05 ЮЗ 3 12 км 9/0
[Ac trans]
+28.0 +20.2 63 +34 +34 очень
душно
1009.9 986.9
06 20.05 ЮЗ 2 12 км 9/0
[Ac trans]
+26.6 +21.5 74 +34 +34 очень
душно
1011.2 988.1 +23.7

 

Местоположение метеостанции Навронго (Гана): широта 10.90 долгота -1.10 высота над уровнем моря 203 м.

В архиве по умолчанию представлена погода в Навронго за последнюю неделю. Архивные данные за месяц целиком и за предыдущие месяцы, начиная с января 2011 года, Вы можете получить, выбрав интересующий диапазон дат из раскрывающегося списка и нажав кнопку "Ввод!".


*Определитесь, кто Вы:
робот инопланетянин человек

Внимание! Время в таблицах - всемирное. Для получения местного времени необходимо прибавить поправку, которая равна 1 ч.

Смотрите также архив погоды в соседних городах и на ближайших метеорологических станциях:

Погода в По (Буркина-Фасо) (28 км)
Погода в Тамале (Гана) (158 км)
Погода в Дапаоне (Того) (158 км)
Погода в Уагадугу (Буркина-Фасо) (168 км)
Погода в Ва (Гана) (180 км)
Погода в Манго (Того) (181 км)
Погода в Йенди (Гана) (200 км)
Погода в Фада-Нгурме (Буркина-Фасо) (204 км)
Погода в Боромо (Буркина-Фасо) (221 км)
Погода в Гауа (Буркина-Фасо) (236 км)

Пояснения к столбцам:

Ветер - указаны скорость ветра в м/с - средняя за 10 мин, порывы в срок и между сроками (в фигурных скобках) и направление, откуда дует ветер: С - северный, СВ - северо-восточный, В - восточный, ЮВ - юго-восточный, Ю - южный, ЮЗ - юго-западный, З - западный, СЗ - северо-западный.
Видимость - горизонтальная дальность видимости в метрах или километрах. При видимости от 1 до 10 км при отсутствии осадков обычно наблюдается дымка, при ухудшении видимости до 1 км и менее - туман. В сухую погоду видимость может ухудшаться дымом, пылью или мглою.
Явления - указаны атмосферные явления, наблюдавшиеся в срок или в последний час перед сроком; фигурными скобками обозначены явления, наблюдавшиеся между сроками (за 1-3 часа до срока); квадратными скобками обозначены град или гололедные отложения с указанием их диаметра в мм.
Облачность - указаны через наклонную черту общая и нижняя облачность в баллах и высота нижней границы облаков в метрах; квадратными скобками обозначены формы облаков: Ci - перистые, Cs - перисто-слоистые, Cc - перисто-кучевые, Ac - высококучевые, As - высокослоистые, Sc - слоисто-кучевые, Ns - слоисто-дождевые, Cu - кучевые, Cb - кучево-дождевые. Подробнее классификацию облаков см. в Атласе облаков (PDF).
T - Температура воздуха - температура, измеренная на высоте 2 м над землей.
Td - Температура точки росы - температура, при понижении до которой содержащийся в воздухе водяной пар достигнет насыщения.
f - Относительная влажность воздуха - влажноcть воздуха, измеренная на высоте 2 м над землей.
Te - Эффективная температура - температура, которую ощущает одетый по сезону человек в тени. Характеристика душности погоды. При расчете учитывается влияние влажности воздуха и скорости ветра на теплоощущения человека.
Tes - Эффективная температура на солнце - температура, которую ощущает человек, с поправкой на солнечный нагрев. Характеристика знойности погоды. Зависит от высоты солнца над горизонтом, облачности и скорости ветра. Ночью, в пасмурную погоду, а также при ветре 12 м/с и более поправка равна нулю.
P - Атмосферное давление - приведенное к уровню моря атмосферное давление.
Po - Атмосферное давление - измеренное на уровне метеостанции атмосферное давление.
Tmin - Минимальная температура - минимум температуры воздуха на высоте 2 м над землей.
Tmax - Максимальная температура - максимум температуры воздуха на высоте 2 м над землей.
R - Количество осадков - Количество выпавших осадков за период времени, мм. При наведении курсора мыши на число - период времени, за который выпало указанное количество осадков.
R24 - Количество осадков - Количество выпавших осадков за 24 часа, мм.
S - Снежный покров - Высота снежного покрова, см. При наведении курсора мыши на число - состояние снежного покрова и степень покрытия местности в баллах.